Year,Month,Day,Hour,Minute,Value (Times are PST for temperature in C)
2015,02,18,00,00,4.30
2015,02,18,00,01,4.30
2015,02,18,00,02,4.30
2015,02,18,00,03,4.30
2015,02,18,00,04,4.30
2015,02,18,00,05,4.30
2015,02,18,00,06,4.30
2015,02,18,00,07,4.30
2015,02,18,00,08,4.30
2015,02,18,00,09,4.30
2015,02,18,00,10,4.20
2015,02,18,00,11,4.20
2015,02,18,00,12,4.20
2015,02,18,00,13,4.20
2015,02,18,00,14,4.20
2015,02,18,00,15,4.20
2015,02,18,00,16,4.20
2015,02,18,00,17,4.20
2015,02,18,00,18,4.20
2015,02,18,00,19,4.30
2015,02,18,00,20,4.30
2015,02,18,00,21,4.40
2015,02,18,00,22,4.50
2015,02,18,00,23,4.50
2015,02,18,00,24,4.60
2015,02,18,00,25,4.60
2015,02,18,00,26,4.60
2015,02,18,00,27,4.60
2015,02,18,00,28,4.70
2015,02,18,00,29,4.70
2015,02,18,00,30,4.70
2015,02,18,00,31,4.80
2015,02,18,00,32,4.80
2015,02,18,00,33,4.80
2015,02,18,00,34,4.80
2015,02,18,00,35,4.80
2015,02,18,00,36,4.80
2015,02,18,00,37,4.70
2015,02,18,00,38,4.70
2015,02,18,00,39,4.70
2015,02,18,00,40,4.60
2015,02,18,00,41,4.60
2015,02,18,00,42,4.60
2015,02,18,00,43,4.60
2015,02,18,00,44,4.50
2015,02,18,00,45,4.50
2015,02,18,00,46,4.40
2015,02,18,00,47,4.40
2015,02,18,00,48,4.30
2015,02,18,00,49,4.30
2015,02,18,00,50,4.30
2015,02,18,00,51,4.20
2015,02,18,00,52,4.20
2015,02,18,00,53,4.20
2015,02,18,00,54,4.20
2015,02,18,00,55,4.10
2015,02,18,00,56,4.10
2015,02,18,00,57,4.00
2015,02,18,00,58,4.00
2015,02,18,00,59,4.00
2015,02,18,01,00,4.00
2015,02,18,01,01,4.00
2015,02,18,01,02,4.00
2015,02,18,01,03,4.00
2015,02,18,01,04,4.00
2015,02,18,01,05,4.00
2015,02,18,01,06,4.00
2015,02,18,01,07,4.00
2015,02,18,01,08,4.00
2015,02,18,01,09,4.00
2015,02,18,01,10,4.00
2015,02,18,01,11,4.00
2015,02,18,01,12,4.10
2015,02,18,01,13,4.10
2015,02,18,01,14,4.20
2015,02,18,01,15,4.20
2015,02,18,01,16,4.30
2015,02,18,01,17,4.30
2015,02,18,01,18,4.40
2015,02,18,01,19,4.40
2015,02,18,01,20,4.40
2015,02,18,01,21,4.40
2015,02,18,01,22,4.30
2015,02,18,01,23,4.30
2015,02,18,01,24,4.30
2015,02,18,01,25,4.20
2015,02,18,01,26,4.20
2015,02,18,01,27,4.30
2015,02,18,01,28,4.30
2015,02,18,01,29,4.30
2015,02,18,01,30,4.40
2015,02,18,01,31,4.40
2015,02,18,01,32,4.40
2015,02,18,01,33,4.50
2015,02,18,01,34,4.50
2015,02,18,01,35,4.50
2015,02,18,01,36,4.50
2015,02,18,01,37,4.60
2015,02,18,01,38,4.60
2015,02,18,01,39,4.60
2015,02,18,01,40,4.60
2015,02,18,01,41,4.60
2015,02,18,01,42,4.60
2015,02,18,01,43,4.60
2015,02,18,01,44,4.60
2015,02,18,01,45,4.60
2015,02,18,01,46,4.60
2015,02,18,01,47,4.60
2015,02,18,01,48,4.60
2015,02,18,01,49,4.60
2015,02,18,01,50,4.60
2015,02,18,01,51,4.60
2015,02,18,01,52,4.60
2015,02,18,01,53,4.60
2015,02,18,01,54,4.50
2015,02,18,01,55,4.40
2015,02,18,01,56,4.40
2015,02,18,01,57,4.30
2015,02,18,01,58,4.30
2015,02,18,01,59,4.20
2015,02,18,02,00,4.20
2015,02,18,02,01,4.20
2015,02,18,02,02,4.10
2015,02,18,02,03,4.00
2015,02,18,02,04,4.00
2015,02,18,02,05,4.00
2015,02,18,02,06,4.00
2015,02,18,02,07,4.10
2015,02,18,02,08,4.10
2015,02,18,02,09,4.10
2015,02,18,02,10,4.10
2015,02,18,02,11,4.10
2015,02,18,02,12,4.10
2015,02,18,02,13,4.10
2015,02,18,02,14,4.10
2015,02,18,02,15,4.20
2015,02,18,02,16,4.20
2015,02,18,02,17,4.20
2015,02,18,02,18,4.20
2015,02,18,02,19,4.20
2015,02,18,02,20,4.20
2015,02,18,02,21,4.30
2015,02,18,02,22,4.30
2015,02,18,02,23,4.30
2015,02,18,02,24,4.40
2015,02,18,02,25,4.40
2015,02,18,02,26,4.40
2015,02,18,02,27,4.40
2015,02,18,02,28,4.40
2015,02,18,02,29,4.40
2015,02,18,02,30,4.40
2015,02,18,02,31,4.40
2015,02,18,02,32,4.40
2015,02,18,02,33,4.40
2015,02,18,02,34,4.50
2015,02,18,02,35,4.50
2015,02,18,02,36,4.60
2015,02,18,02,37,4.60
2015,02,18,02,38,4.60
2015,02,18,02,39,4.60
2015,02,18,02,40,4.70
2015,02,18,02,41,4.70
2015,02,18,02,42,4.70
2015,02,18,02,43,4.70
2015,02,18,02,44,4.70
2015,02,18,02,45,4.60
2015,02,18,02,46,4.60
2015,02,18,02,47,4.60
2015,02,18,02,48,4.60
2015,02,18,02,49,4.60
2015,02,18,02,50,4.60
2015,02,18,02,51,4.50
2015,02,18,02,52,4.50
2015,02,18,02,53,4.50
2015,02,18,02,54,4.50
2015,02,18,02,55,4.50
2015,02,18,02,56,4.50
2015,02,18,02,57,4.40
2015,02,18,02,58,4.40
2015,02,18,02,59,4.40
2015,02,18,03,00,4.30
2015,02,18,03,01,4.30
2015,02,18,03,02,4.30
2015,02,18,03,03,4.20
2015,02,18,03,04,4.20
2015,02,18,03,05,4.20
2015,02,18,03,06,4.20
2015,02,18,03,07,4.10
2015,02,18,03,08,4.10
2015,02,18,03,09,4.00
2015,02,18,03,10,4.00
2015,02,18,03,11,3.90
2015,02,18,03,12,3.90
2015,02,18,03,13,3.80
2015,02,18,03,14,3.80
2015,02,18,03,15,3.80
2015,02,18,03,16,3.80
2015,02,18,03,17,3.80
2015,02,18,03,18,3.80
2015,02,18,03,19,3.80
2015,02,18,03,20,3.80
2015,02,18,03,21,3.80
2015,02,18,03,22,3.80
2015,02,18,03,23,3.80
2015,02,18,03,24,3.80
2015,02,18,03,25,3.80
2015,02,18,03,26,3.80
2015,02,18,03,27,3.80
2015,02,18,03,28,3.80
2015,02,18,03,29,3.80
2015,02,18,03,30,3.80
2015,02,18,03,31,3.70
2015,02,18,03,32,3.70
2015,02,18,03,33,3.80
2015,02,18,03,34,3.80
2015,02,18,03,35,3.80
2015,02,18,03,36,3.80
2015,02,18,03,37,3.80
2015,02,18,03,38,3.80
2015,02,18,03,39,3.80
2015,02,18,03,40,3.80
2015,02,18,03,41,3.80
2015,02,18,03,42,3.80
2015,02,18,03,43,3.80
2015,02,18,03,44,3.80
2015,02,18,03,45,3.80
2015,02,18,03,46,3.70
2015,02,18,03,47,3.70
2015,02,18,03,48,3.70
2015,02,18,03,49,3.70
2015,02,18,03,50,3.70
2015,02,18,03,51,3.70
2015,02,18,03,52,3.70
2015,02,18,03,53,3.70
2015,02,18,03,54,3.70
2015,02,18,03,55,3.70
2015,02,18,03,56,3.70
2015,02,18,03,57,3.70
2015,02,18,03,58,3.70
2015,02,18,03,59,3.70
2015,02,18,04,00,3.70
2015,02,18,04,01,3.70
2015,02,18,04,02,3.70
2015,02,18,04,03,3.70
2015,02,18,04,04,3.60
2015,02,18,04,05,3.60
2015,02,18,04,06,3.60
2015,02,18,04,07,3.60
2015,02,18,04,08,3.60
2015,02,18,04,09,3.60
2015,02,18,04,10,3.50
2015,02,18,04,11,3.50
2015,02,18,04,12,3.50
2015,02,18,04,13,3.50
2015,02,18,04,14,3.40
2015,02,18,04,15,3.40
2015,02,18,04,16,3.30
2015,02,18,04,17,3.30
2015,02,18,04,18,3.30
2015,02,18,04,19,3.30
2015,02,18,04,20,3.30
2015,02,18,04,21,3.30
2015,02,18,04,22,3.30
2015,02,18,04,23,3.30
2015,02,18,04,24,3.30
2015,02,18,04,25,3.30
2015,02,18,04,26,3.30
2015,02,18,04,27,3.30
2015,02,18,04,28,3.30
2015,02,18,04,29,3.20
2015,02,18,04,30,3.20
2015,02,18,04,31,3.20
2015,02,18,04,32,3.20
2015,02,18,04,33,3.10
2015,02,18,04,34,3.10
2015,02,18,04,35,3.10
2015,02,18,04,36,3.10
2015,02,18,04,37,3.10
2015,02,18,04,38,3.20
2015,02,18,04,39,3.20
2015,02,18,04,40,3.10
2015,02,18,04,41,3.10
2015,02,18,04,42,3.10
2015,02,18,04,43,3.10
2015,02,18,04,44,3.10
2015,02,18,04,45,3.10
2015,02,18,04,46,3.10
2015,02,18,04,47,3.10
2015,02,18,04,48,3.10
2015,02,18,04,49,3.10
2015,02,18,04,50,3.10
2015,02,18,04,51,3.10
2015,02,18,04,52,3.10
2015,02,18,04,53,3.10
2015,02,18,04,54,3.10
2015,02,18,04,55,3.10
2015,02,18,04,56,3.10
2015,02,18,04,57,3.00
2015,02,18,04,58,2.90
2015,02,18,04,59,2.90
2015,02,18,05,00,2.90
2015,02,18,05,01,2.90
2015,02,18,05,02,2.90
2015,02,18,05,03,2.80
2015,02,18,05,04,2.80
2015,02,18,05,05,2.80
2015,02,18,05,06,2.70
2015,02,18,05,07,2.70
2015,02,18,05,08,2.70
2015,02,18,05,09,2.70
2015,02,18,05,10,2.70
2015,02,18,05,11,2.70
2015,02,18,05,12,2.70
2015,02,18,05,13,2.60
2015,02,18,05,14,2.60
2015,02,18,05,15,2.50
2015,02,18,05,16,2.50
2015,02,18,05,17,2.50
2015,02,18,05,18,2.40
2015,02,18,05,19,2.40
2015,02,18,05,20,2.40
2015,02,18,05,21,2.40
2015,02,18,05,22,2.30
2015,02,18,05,23,2.30
2015,02,18,05,24,2.30
2015,02,18,05,25,2.30
2015,02,18,05,26,2.20
2015,02,18,05,27,2.20
2015,02,18,05,28,2.20
2015,02,18,05,29,2.20
2015,02,18,05,30,2.20
2015,02,18,05,31,2.20
2015,02,18,05,32,2.20
2015,02,18,05,33,2.20
2015,02,18,05,34,2.20
2015,02,18,05,35,2.20
2015,02,18,05,36,2.20
2015,02,18,05,37,2.20
2015,02,18,05,38,2.30
2015,02,18,05,39,2.40
2015,02,18,05,40,2.40
2015,02,18,05,41,2.50
2015,02,18,05,42,2.50
2015,02,18,05,43,2.60
2015,02,18,05,44,2.60
2015,02,18,05,45,2.60
2015,02,18,05,46,2.60
2015,02,18,05,47,2.60
2015,02,18,05,48,2.60
2015,02,18,05,49,2.60
2015,02,18,05,50,2.60
2015,02,18,05,51,2.60
2015,02,18,05,52,2.50
2015,02,18,05,53,2.50
2015,02,18,05,54,2.50
2015,02,18,05,55,2.50
2015,02,18,05,56,2.40
2015,02,18,05,57,2.40
2015,02,18,05,58,2.40
2015,02,18,05,59,2.40
2015,02,18,06,00,2.40
2015,02,18,06,01,2.40
2015,02,18,06,02,2.40
2015,02,18,06,03,2.50
2015,02,18,06,04,2.50
2015,02,18,06,05,2.60
2015,02,18,06,06,2.60
2015,02,18,06,07,2.70
2015,02,18,06,08,2.70
2015,02,18,06,09,2.70
2015,02,18,06,10,2.70
2015,02,18,06,11,2.80
2015,02,18,06,12,2.80
2015,02,18,06,13,2.80
2015,02,18,06,14,2.80
2015,02,18,06,15,2.80
2015,02,18,06,16,2.80
2015,02,18,06,17,2.90
2015,02,18,06,18,2.90
2015,02,18,06,19,2.90
2015,02,18,06,20,2.90
2015,02,18,06,21,3.10
2015,02,18,06,22,3.10
2015,02,18,06,23,3.00
2015,02,18,06,24,2.90
2015,02,18,06,25,2.90
2015,02,18,06,26,2.90
2015,02,18,06,27,2.80
2015,02,18,06,28,2.80
2015,02,18,06,29,2.70
2015,02,18,06,30,2.70
2015,02,18,06,31,2.70
2015,02,18,06,32,2.70
2015,02,18,06,33,2.70
2015,02,18,06,34,2.70
2015,02,18,06,35,2.70
2015,02,18,06,36,2.70
2015,02,18,06,37,2.70
2015,02,18,06,38,2.70
2015,02,18,06,39,2.70
2015,02,18,06,40,2.70
2015,02,18,06,41,2.80
2015,02,18,06,42,2.90
2015,02,18,06,43,2.90
2015,02,18,06,44,2.90
2015,02,18,06,45,2.90
2015,02,18,06,46,3.00
2015,02,18,06,47,3.10
2015,02,18,06,48,3.10
2015,02,18,06,49,3.10
2015,02,18,06,50,3.20
2015,02,18,06,51,3.20
2015,02,18,06,52,3.30
2015,02,18,06,53,3.30
2015,02,18,06,54,3.30
2015,02,18,06,55,3.30
2015,02,18,06,56,3.30
2015,02,18,06,57,3.30
2015,02,18,06,58,3.30
2015,02,18,06,59,3.30
2015,02,18,07,00,3.30
2015,02,18,07,01,3.30
2015,02,18,07,02,3.30
2015,02,18,07,03,3.40
2015,02,18,07,04,3.50
2015,02,18,07,05,3.60
2015,02,18,07,06,3.60
2015,02,18,07,07,3.70
2015,02,18,07,08,3.80
2015,02,18,07,09,3.80
2015,02,18,07,10,3.70
2015,02,18,07,11,3.70
2015,02,18,07,12,3.70
2015,02,18,07,13,3.60
2015,02,18,07,14,3.60
2015,02,18,07,15,3.50
2015,02,18,07,16,3.50
2015,02,18,07,17,3.50
2015,02,18,07,18,3.40
2015,02,18,07,19,3.50
2015,02,18,07,20,3.50
2015,02,18,07,21,3.60
2015,02,18,07,22,3.60
2015,02,18,07,23,3.70
2015,02,18,07,24,3.70
2015,02,18,07,25,3.80
2015,02,18,07,26,3.80
2015,02,18,07,27,3.90
2015,02,18,07,28,3.90
2015,02,18,07,29,3.90
2015,02,18,07,30,4.00
2015,02,18,07,31,4.00
2015,02,18,07,32,4.00
2015,02,18,07,33,4.00
2015,02,18,07,34,4.10
2015,02,18,07,35,4.10
2015,02,18,07,36,4.10
2015,02,18,07,37,4.20
2015,02,18,07,38,4.20
2015,02,18,07,39,4.20
2015,02,18,07,40,4.30
2015,02,18,07,41,4.30
2015,02,18,07,42,4.40
2015,02,18,07,43,4.40
2015,02,18,07,44,4.40
2015,02,18,07,45,4.50
2015,02,18,07,46,4.50
2015,02,18,07,47,4.50
2015,02,18,07,48,4.50
2015,02,18,07,49,4.50
2015,02,18,07,50,4.50
2015,02,18,07,51,4.50
2015,02,18,07,52,4.60
2015,02,18,07,53,4.60
2015,02,18,07,54,4.70
2015,02,18,07,55,4.70
2015,02,18,07,56,4.80
2015,02,18,07,57,4.90
2015,02,18,07,58,4.90
2015,02,18,07,59,4.90
2015,02,18,08,00,4.90
2015,02,18,08,01,4.90
2015,02,18,08,02,5.00
2015,02,18,08,03,5.10
2015,02,18,08,04,5.10
2015,02,18,08,05,5.10
2015,02,18,08,06,5.10
2015,02,18,08,07,5.10
2015,02,18,08,08,5.10
2015,02,18,08,09,5.10
2015,02,18,08,10,5.10
2015,02,18,08,11,5.10
2015,02,18,08,12,5.10
2015,02,18,08,13,5.10
2015,02,18,08,14,5.20
2015,02,18,08,15,5.20
2015,02,18,08,16,5.30
2015,02,18,08,17,5.30
2015,02,18,08,18,5.30
2015,02,18,08,19,5.30
2015,02,18,08,20,5.30
2015,02,18,08,21,5.30
2015,02,18,08,22,5.30
2015,02,18,08,23,5.30
2015,02,18,08,24,5.30
2015,02,18,08,25,5.30
2015,02,18,08,26,5.20
2015,02,18,08,27,5.20
2015,02,18,08,28,5.20
2015,02,18,08,29,5.10
2015,02,18,08,30,5.10
2015,02,18,08,31,5.10
2015,02,18,08,32,5.10
2015,02,18,08,33,5.10
2015,02,18,08,34,5.10
2015,02,18,08,35,5.10
2015,02,18,08,36,5.00
2015,02,18,08,37,4.90
2015,02,18,08,38,4.90
2015,02,18,08,39,4.90
2015,02,18,08,40,4.90
2015,02,18,08,41,4.90
2015,02,18,08,42,4.90
2015,02,18,08,43,4.90
2015,02,18,08,44,4.90
2015,02,18,08,45,4.90
2015,02,18,08,46,4.90
2015,02,18,08,47,4.90
2015,02,18,08,48,4.90
2015,02,18,08,49,4.90
2015,02,18,08,50,4.90
2015,02,18,08,51,4.90
2015,02,18,08,52,4.90
2015,02,18,08,53,4.90
2015,02,18,08,54,5.00
2015,02,18,08,55,5.10
2015,02,18,08,56,5.10
2015,02,18,08,57,5.10
2015,02,18,08,58,5.10
2015,02,18,08,59,5.10
2015,02,18,09,00,5.20
2015,02,18,09,01,5.30
2015,02,18,09,02,5.40
2015,02,18,09,03,5.40
2015,02,18,09,04,5.50
2015,02,18,09,05,5.60
2015,02,18,09,06,5.70
2015,02,18,09,07,5.70
2015,02,18,09,08,5.80
2015,02,18,09,09,5.90
2015,02,18,09,10,6.00
2015,02,18,09,11,6.00
2015,02,18,09,12,6.00
2015,02,18,09,13,6.10
2015,02,18,09,14,6.10
2015,02,18,09,15,6.20
2015,02,18,09,16,6.20
2015,02,18,09,17,6.30
2015,02,18,09,18,6.30
2015,02,18,09,19,6.40
2015,02,18,09,20,6.40
2015,02,18,09,21,6.50
2015,02,18,09,22,6.60
2015,02,18,09,23,6.60
2015,02,18,09,24,6.70
2015,02,18,09,25,6.80
2015,02,18,09,26,6.90
2015,02,18,09,27,7.00
2015,02,18,09,28,7.10
2015,02,18,09,29,7.20
2015,02,18,09,30,7.30
2015,02,18,09,31,7.30
2015,02,18,09,32,7.40
2015,02,18,09,33,7.50
2015,02,18,09,34,7.60
2015,02,18,09,35,7.70
2015,02,18,09,36,7.90
2015,02,18,09,37,8.00
2015,02,18,09,38,8.10
2015,02,18,09,39,8.20
2015,02,18,09,40,8.40
2015,02,18,09,41,8.40
2015,02,18,09,42,8.50
2015,02,18,09,43,8.60
2015,02,18,09,44,8.70
2015,02,18,09,45,8.80
2015,02,18,09,46,8.90
2015,02,18,09,47,9.00
2015,02,18,09,48,9.00
2015,02,18,09,49,9.10
2015,02,18,09,50,9.20
2015,02,18,09,51,9.20
2015,02,18,09,52,9.30
2015,02,18,09,53,9.40
2015,02,18,09,54,9.40
2015,02,18,09,55,9.50
2015,02,18,09,56,9.60
2015,02,18,09,57,9.60
2015,02,18,09,58,9.70
2015,02,18,09,59,9.70
2015,02,18,10,00,9.70
2015,02,18,10,01,9.70
2015,02,18,10,02,9.70
2015,02,18,10,03,9.80
2015,02,18,10,04,9.80
2015,02,18,10,05,9.80
2015,02,18,10,06,9.80
2015,02,18,10,07,9.70
2015,02,18,10,08,9.70
2015,02,18,10,09,9.70
2015,02,18,10,10,9.70
2015,02,18,10,11,9.70
2015,02,18,10,12,9.70
2015,02,18,10,13,9.70
2015,02,18,10,14,9.70
2015,02,18,10,15,9.70
2015,02,18,10,16,9.70
2015,02,18,10,17,9.70
2015,02,18,10,18,9.80
2015,02,18,10,19,9.80
2015,02,18,10,20,9.90
2015,02,18,10,21,9.90
2015,02,18,10,22,9.90
2015,02,18,10,23,9.90
2015,02,18,10,24,9.90
2015,02,18,10,25,9.90
2015,02,18,10,26,10.00
2015,02,18,10,27,10.10
2015,02,18,10,28,10.10
2015,02,18,10,29,10.10
2015,02,18,10,30,10.10
2015,02,18,10,31,10.10
2015,02,18,10,32,10.10
2015,02,18,10,33,10.20
2015,02,18,10,34,10.20
2015,02,18,10,35,10.20
2015,02,18,10,36,10.20
2015,02,18,10,37,10.20
2015,02,18,10,38,10.30
2015,02,18,10,39,10.40
2015,02,18,10,40,10.60
2015,02,18,10,41,10.60
2015,02,18,10,42,10.60
2015,02,18,10,43,10.60
2015,02,18,10,44,10.60
2015,02,18,10,45,10.70
2015,02,18,10,46,10.70
2015,02,18,10,47,10.70
2015,02,18,10,48,10.80
2015,02,18,10,49,10.80
2015,02,18,10,50,10.90
2015,02,18,10,51,11.00
2015,02,18,10,52,11.20
2015,02,18,10,53,11.30
2015,02,18,10,54,11.40
2015,02,18,10,55,11.40
2015,02,18,10,56,11.50
2015,02,18,10,57,11.60
2015,02,18,10,58,11.60
2015,02,18,10,59,11.60
2015,02,18,11,00,11.70
2015,02,18,11,01,11.70
2015,02,18,11,02,11.70
2015,02,18,11,03,11.70
2015,02,18,11,04,11.70
2015,02,18,11,05,11.80
2015,02,18,11,06,11.80
2015,02,18,11,07,11.90
2015,02,18,11,08,11.90
2015,02,18,11,09,12.00
2015,02,18,11,10,12.10
2015,02,18,11,11,12.00
2015,02,18,11,12,12.00
2015,02,18,11,13,11.90
2015,02,18,11,14,12.00
2015,02,18,11,15,12.10
2015,02,18,11,16,12.10
2015,02,18,11,17,12.10
2015,02,18,11,18,12.20
2015,02,18,11,19,12.20
2015,02,18,11,20,12.30
2015,02,18,11,21,12.20
2015,02,18,11,22,12.10
2015,02,18,11,23,12.10
2015,02,18,11,24,12.20
2015,02,18,11,25,12.20
2015,02,18,11,26,12.20
2015,02,18,11,27,12.30
2015,02,18,11,28,12.30
2015,02,18,11,29,12.40
2015,02,18,11,30,12.50
2015,02,18,11,31,12.50
2015,02,18,11,32,12.60
2015,02,18,11,33,12.70
2015,02,18,11,34,12.70
2015,02,18,11,35,12.80
2015,02,18,11,36,12.80
2015,02,18,11,37,12.90
2015,02,18,11,38,12.90
2015,02,18,11,39,12.80
2015,02,18,11,40,12.80
2015,02,18,11,41,12.90
2015,02,18,11,42,12.90
2015,02,18,11,43,13.00
2015,02,18,11,44,13.00
2015,02,18,11,45,12.90
2015,02,18,11,46,13.00
2015,02,18,11,47,13.00
2015,02,18,11,48,13.00
2015,02,18,11,49,13.00
2015,02,18,11,50,13.00
2015,02,18,11,51,13.00
2015,02,18,11,52,13.00
2015,02,18,11,53,12.90
2015,02,18,11,54,12.90
2015,02,18,11,55,13.00
2015,02,18,11,56,12.90
2015,02,18,11,57,12.90
2015,02,18,11,58,13.00
2015,02,18,11,59,13.00
2015,02,18,12,00,12.90
2015,02,18,12,01,12.90
2015,02,18,12,02,12.90
2015,02,18,12,03,12.90
2015,02,18,12,04,12.80
2015,02,18,12,05,12.90
2015,02,18,12,06,12.90
2015,02,18,12,07,12.90
2015,02,18,12,08,12.90
2015,02,18,12,09,12.80
2015,02,18,12,10,12.80
2015,02,18,12,11,12.80
2015,02,18,12,12,12.80
2015,02,18,12,13,12.70
2015,02,18,12,14,12.70
2015,02,18,12,15,12.80
2015,02,18,12,16,12.90
2015,02,18,12,17,12.90
2015,02,18,12,18,12.90
2015,02,18,12,19,12.80
2015,02,18,12,20,12.80
2015,02,18,12,21,12.80
2015,02,18,12,22,12.70
2015,02,18,12,23,12.70
2015,02,18,12,24,12.70
2015,02,18,12,25,12.70
2015,02,18,12,26,12.80
2015,02,18,12,27,12.80
2015,02,18,12,28,12.80
2015,02,18,12,29,12.80
2015,02,18,12,30,12.80
2015,02,18,12,31,12.80
2015,02,18,12,32,12.80
2015,02,18,12,33,12.80
2015,02,18,12,34,12.80
2015,02,18,12,35,12.80
2015,02,18,12,36,12.80
2015,02,18,12,37,12.80
2015,02,18,12,38,12.80
2015,02,18,12,39,12.70
2015,02,18,12,40,12.60
2015,02,18,12,41,12.60
2015,02,18,12,42,12.60
2015,02,18,12,43,12.60
2015,02,18,12,44,12.50
2015,02,18,12,45,12.50
2015,02,18,12,46,12.50
2015,02,18,12,47,12.40
2015,02,18,12,48,12.30
2015,02,18,12,49,12.30
2015,02,18,12,50,12.30
2015,02,18,12,51,12.30
2015,02,18,12,52,12.30
2015,02,18,12,53,12.30
2015,02,18,12,54,12.30
2015,02,18,12,55,12.40
2015,02,18,12,56,12.50
2015,02,18,12,57,12.50
2015,02,18,12,58,12.40
2015,02,18,12,59,12.50
2015,02,18,13,00,12.50
2015,02,18,13,01,12.60
2015,02,18,13,02,12.60
2015,02,18,13,03,12.60
2015,02,18,13,04,12.70
2015,02,18,13,05,12.70
2015,02,18,13,06,12.70
2015,02,18,13,07,12.70
2015,02,18,13,08,12.70
2015,02,18,13,09,12.70
2015,02,18,13,10,12.60
2015,02,18,13,11,12.60
2015,02,18,13,12,12.50
2015,02,18,13,13,12.50
2015,02,18,13,14,12.40
2015,02,18,13,15,12.40
2015,02,18,13,16,12.30
2015,02,18,13,17,12.40
2015,02,18,13,18,12.40
2015,02,18,13,19,12.40
2015,02,18,13,20,12.40
2015,02,18,13,21,12.40
2015,02,18,13,22,12.30
2015,02,18,13,23,12.40
2015,02,18,13,24,12.40
2015,02,18,13,25,12.40
2015,02,18,13,26,12.50
2015,02,18,13,27,12.40
2015,02,18,13,28,12.40
2015,02,18,13,29,12.40
2015,02,18,13,30,12.30
2015,02,18,13,31,12.40
2015,02,18,13,32,12.40
2015,02,18,13,33,12.50
2015,02,18,13,34,12.50
2015,02,18,13,35,12.60
2015,02,18,13,36,12.60
2015,02,18,13,37,12.70
2015,02,18,13,38,12.70
2015,02,18,13,39,12.80
2015,02,18,13,40,12.80
2015,02,18,13,41,12.70
2015,02,18,13,42,12.60
2015,02,18,13,43,12.50
2015,02,18,13,44,12.50
2015,02,18,13,45,12.60
2015,02,18,13,46,12.70
2015,02,18,13,47,12.70
2015,02,18,13,48,12.80
2015,02,18,13,49,12.60
2015,02,18,13,50,12.60
2015,02,18,13,51,12.50
2015,02,18,13,52,12.50
2015,02,18,13,53,12.50
2015,02,18,13,54,12.60
2015,02,18,13,55,12.60
2015,02,18,13,56,12.50
2015,02,18,13,57,12.40
2015,02,18,13,58,12.40
2015,02,18,13,59,12.30
2015,02,18,14,00,12.40
2015,02,18,14,01,12.50
2015,02,18,14,02,12.60
2015,02,18,14,03,12.60
2015,02,18,14,04,12.60
2015,02,18,14,05,12.60
2015,02,18,14,06,12.70
2015,02,18,14,07,12.70
2015,02,18,14,08,12.70
2015,02,18,14,09,12.70
2015,02,18,14,10,12.80
2015,02,18,14,11,12.80
2015,02,18,14,12,12.90
2015,02,18,14,13,13.00
2015,02,18,14,14,13.00
2015,02,18,14,15,13.00
2015,02,18,14,16,13.00
2015,02,18,14,17,12.90
2015,02,18,14,18,12.80
2015,02,18,14,19,12.90
2015,02,18,14,20,12.80
2015,02,18,14,21,12.80
2015,02,18,14,22,12.80
2015,02,18,14,23,12.90
2015,02,18,14,24,12.90
2015,02,18,14,25,12.90
2015,02,18,14,26,13.00
2015,02,18,14,27,12.90
2015,02,18,14,28,12.90
2015,02,18,14,29,12.90
2015,02,18,14,30,13.00
2015,02,18,14,31,13.00
2015,02,18,14,32,12.90
2015,02,18,14,33,12.90
2015,02,18,14,34,12.80
2015,02,18,14,35,12.80
2015,02,18,14,36,12.80
2015,02,18,14,37,12.80
2015,02,18,14,38,12.90
2015,02,18,14,39,12.90
2015,02,18,14,40,13.00
2015,02,18,14,41,13.00
2015,02,18,14,42,13.00
2015,02,18,14,43,13.00
2015,02,18,14,44,13.00
2015,02,18,14,45,12.90
2015,02,18,14,46,12.80
2015,02,18,14,47,12.70
2015,02,18,14,48,12.60
2015,02,18,14,49,12.50
2015,02,18,14,50,12.50
2015,02,18,14,51,12.50
2015,02,18,14,52,12.50
2015,02,18,14,53,12.40
2015,02,18,14,54,12.30
2015,02,18,14,55,12.30
2015,02,18,14,56,12.20
2015,02,18,14,57,12.10
2015,02,18,14,58,12.10
2015,02,18,14,59,12.10
2015,02,18,15,00,12.00
2015,02,18,15,01,12.00
2015,02,18,15,02,12.00
2015,02,18,15,03,11.90
2015,02,18,15,04,11.80
2015,02,18,15,05,11.80
2015,02,18,15,06,11.80
2015,02,18,15,07,11.80
2015,02,18,15,08,11.70
2015,02,18,15,09,11.70
2015,02,18,15,10,11.70
2015,02,18,15,11,11.70
2015,02,18,15,12,11.70
2015,02,18,15,13,11.70
2015,02,18,15,14,11.70
2015,02,18,15,15,11.70
2015,02,18,15,16,11.70
2015,02,18,15,17,11.70
2015,02,18,15,18,11.60
2015,02,18,15,19,11.60
2015,02,18,15,20,11.60
2015,02,18,15,21,11.50
2015,02,18,15,22,11.40
2015,02,18,15,23,11.40
2015,02,18,15,24,11.30
2015,02,18,15,25,11.30
2015,02,18,15,26,11.20
2015,02,18,15,27,11.20
2015,02,18,15,28,11.20
2015,02,18,15,29,11.20
2015,02,18,15,30,11.10
2015,02,18,15,31,11.10
2015,02,18,15,32,11.10
2015,02,18,15,33,11.10
2015,02,18,15,34,11.10
2015,02,18,15,35,11.10
2015,02,18,15,36,11.10
2015,02,18,15,37,11.10
2015,02,18,15,38,11.10
2015,02,18,15,39,11.10
2015,02,18,15,40,11.10
2015,02,18,15,41,11.10
2015,02,18,15,42,11.00
2015,02,18,15,43,10.90
2015,02,18,15,44,10.90
2015,02,18,15,45,10.90
2015,02,18,15,46,10.90
2015,02,18,15,47,10.90
2015,02,18,15,48,10.90
2015,02,18,15,49,10.90
2015,02,18,15,50,10.90
2015,02,18,15,51,10.90
2015,02,18,15,52,10.90
2015,02,18,15,53,10.90
2015,02,18,15,54,10.90
2015,02,18,15,55,10.90
2015,02,18,15,56,10.90
2015,02,18,15,57,10.90
2015,02,18,15,58,10.90
2015,02,18,15,59,10.90
2015,02,18,16,00,10.90
2015,02,18,16,01,10.90
2015,02,18,16,02,10.80
2015,02,18,16,03,10.80
2015,02,18,16,04,10.80
2015,02,18,16,05,10.80
2015,02,18,16,06,10.70
2015,02,18,16,07,10.70
2015,02,18,16,08,10.70
2015,02,18,16,09,10.70
2015,02,18,16,10,10.70
2015,02,18,16,11,10.70
2015,02,18,16,12,10.60
2015,02,18,16,13,10.60
2015,02,18,16,14,10.60
2015,02,18,16,15,10.60
2015,02,18,16,16,10.60
2015,02,18,16,17,10.60
2015,02,18,16,18,10.60
2015,02,18,16,19,10.60
2015,02,18,16,20,10.60
2015,02,18,16,21,10.60
2015,02,18,16,22,10.60
2015,02,18,16,23,10.60
2015,02,18,16,24,10.60
2015,02,18,16,25,10.60
2015,02,18,16,26,10.60
2015,02,18,16,27,10.60
2015,02,18,16,28,10.60
2015,02,18,16,29,10.60
2015,02,18,16,30,10.60
2015,02,18,16,31,10.60
2015,02,18,16,32,10.60
2015,02,18,16,33,10.60
2015,02,18,16,34,10.60
2015,02,18,16,35,10.60
2015,02,18,16,36,10.60
2015,02,18,16,37,10.60
2015,02,18,16,38,10.60
2015,02,18,16,39,10.70
2015,02,18,16,40,10.70
2015,02,18,16,41,10.70
2015,02,18,16,42,10.70
2015,02,18,16,43,10.70
2015,02,18,16,44,10.70
2015,02,18,16,45,10.60
2015,02,18,16,46,10.60
2015,02,18,16,47,10.60
2015,02,18,16,48,10.70
2015,02,18,16,49,10.70
2015,02,18,16,50,10.70
2015,02,18,16,51,10.70
2015,02,18,16,52,10.70
2015,02,18,16,53,10.70
2015,02,18,16,54,10.70
2015,02,18,16,55,10.70
2015,02,18,16,56,10.60
2015,02,18,16,57,10.60
2015,02,18,16,58,10.60
2015,02,18,16,59,10.60
2015,02,18,17,00,10.60
2015,02,18,17,01,10.60
2015,02,18,17,02,10.60
2015,02,18,17,03,10.60
2015,02,18,17,04,10.60
2015,02,18,17,05,10.60
2015,02,18,17,06,10.60
2015,02,18,17,07,10.60
2015,02,18,17,08,10.60
2015,02,18,17,09,10.60
2015,02,18,17,10,10.60
2015,02,18,17,11,10.60
2015,02,18,17,12,10.60
2015,02,18,17,13,10.60
2015,02,18,17,14,10.60
2015,02,18,17,15,10.60
2015,02,18,17,16,10.60
2015,02,18,17,17,10.60
2015,02,18,17,18,10.60
2015,02,18,17,19,10.60
2015,02,18,17,20,10.60
2015,02,18,17,21,10.60
2015,02,18,17,22,10.60
2015,02,18,17,23,10.60
2015,02,18,17,24,10.60
2015,02,18,17,25,10.60
2015,02,18,17,26,10.60
2015,02,18,17,27,10.60
2015,02,18,17,28,10.60
2015,02,18,17,29,10.60
2015,02,18,17,30,10.60
2015,02,18,17,31,10.60
2015,02,18,17,32,10.60
2015,02,18,17,33,10.60
2015,02,18,17,34,10.60
2015,02,18,17,35,10.60
2015,02,18,17,36,10.60
2015,02,18,17,37,10.60
2015,02,18,17,38,10.60
2015,02,18,17,39,10.60
2015,02,18,17,40,10.60
2015,02,18,17,41,10.60
2015,02,18,17,42,10.60
2015,02,18,17,43,10.60
2015,02,18,17,44,10.60
2015,02,18,17,45,10.60
2015,02,18,17,46,10.60